EW8281 Weather Reports


time (UTC)temp
C
wind
direction
speed
KPH
gust
KPH
rain 1hr
cm
rain 24hr
cm
rain mn
cm
humidity
%
barometer
mb
20260510190055 27 331 1.6 9.7 0.00 0.00 0.00 31 1013.1
20260510184553 27 250 1.6 12.9 0.00 0.00 0.00 32 1013.2
20260510183050 27 5 4.8 17.7 0.00 0.00 0.00 32 1013.2
20260510181549 27 156 6.4 16.1 0.00 0.00 0.00 30 1013.4
20260510180047 26 342 1.6 19.3 0.00 0.00 0.00 30 1013.4
20260510174547 27 27 0.0 9.7 0.00 0.00 0.00 34 1013.7
20260510173046 27 313 0.0 11.3 0.00 0.00 0.00 35 1013.9
20260510171542 26 65 0.0 8.0 0.00 0.00 0.00 40 1013.8
20260510170039 26 90 0.0 9.7 0.00 0.00 0.00 35 1013.9
20260510164541 25 15 4.8 11.3 0.00 0.00 0.00 35 1014.1
20260510163039 25 189 0.0 9.7 0.00 0.00 0.00 36 1014.2
20260510161537 26 294 1.6 8.0 0.00 0.00 0.00 38 1014.3
20260510160034 25 286 0.0 8.0 0.00 0.00 0.00 39 1014.4
20260510154534 25 261 3.2 8.0 0.00 0.00 0.00 43 1014.4
20260510153029 24 38 1.6 9.7 0.00 0.00 0.00 44 1014.5
20260510151532 23 49 0.0 8.0 0.00 0.00 0.00 48 1014.5
20260510150023 23 76 1.6 9.7 0.00 0.00 0.00 51 1014.6
20260510144533 23 275 0.0 8.0 0.00 0.00 0.00 52 1014.5
20260510143022 23 159 0.0 6.4 0.00 0.00 0.00 50 1014.6
20260510141515 22 29 1.6 4.8 0.00 0.00 0.00 51 1014.6
20260510140011 22 13 0.0 8.0 0.00 0.00 0.00 58 1014.7
20260510134508 21 355 0.0 6.4 0.00 0.00 0.00 62 1014.7
20260510133004 20 350 1.6 6.4 0.00 0.00 0.00 65 1014.6
20260510131601 20 5 0.0 3.2 0.00 0.00 0.00 70 1014.5
20260510130056 19 340 0.0 3.2 0.00 0.00 0.00 70 1014.4
20260510124559 18 323 0.0 6.4 0.00 0.00 0.00 79 1014.5
20260510123049 17 65 0.0 1.6 0.00 0.00 0.00 87 1014.3
20260510121547 16 66 0.0 1.6 0.00 0.00 0.00 93 1014.1
20260510120044 15 67 0.0 0.0 0.00 0.00 0.00 96 1013.7
20260510114542 14 67 0.0 0.0 0.00 0.00 0.00 96 1013.4
20260510113041 13 67 0.0 0.0 0.00 0.00 0.00 96 1013.2
20260510111552 13 67 0.0 0.0 0.00 0.00 0.00 96 1013.0
20260510110036 12 67 0.0 0.0 0.00 0.00 0.00 96 1012.7
20260510104543 12 67 0.0 0.0 0.00 0.00 0.00 95 1012.5
20260510103034 12 67 0.0 0.0 0.00 0.00 0.00 95 1012.3
20260510101530 12 67 0.0 0.0 0.00 0.00 0.00 95 1012.2
20260510100028 12 67 0.0 0.0 0.00 0.00 0.00 95 1012.1
20260510094531 13 212 0.0 0.0 0.00 0.00 0.00 94 1011.8
20260510093023 13 211 0.0 0.0 0.00 0.00 0.00 95 1011.6
20260510091523 13 212 0.0 0.0 0.00 0.00 0.00 95 1011.5
20260510090020 13 211 0.0 0.0 0.00 0.00 0.00 94 1011.5
20260510084518 13 212 0.0 0.0 0.00 0.00 0.00 94 1011.4
20260510083015 13 212 0.0 0.0 0.00 0.00 0.00 94 1011.3
20260510081514 13 212 0.0 0.0 0.00 0.00 0.00 94 1011.1
20260510080011 14 212 0.0 0.0 0.00 0.00 0.00 94 1010.9
20260510074510 14 212 0.0 0.0 0.00 0.00 0.00 93 1010.9
20260510073008 14 212 0.0 0.0 0.00 0.00 0.00 93 1010.8
20260510071507 15 212 0.0 0.0 0.00 0.00 0.00 93 1010.7
20260510070006 15 212 0.0 0.0 0.00 0.00 0.00 92 1010.6
20260510064505 15 212 0.0 0.0 0.00 0.00 0.00 92 1010.7
20260510063002 15 212 0.0 0.0 0.00 0.00 0.00 92 1010.7
20260510061502 15 212 0.0 0.0 0.00 0.00 0.00 92 1010.8
20260510060101 15 212 0.0 1.6 0.00 0.00 0.00 92 1010.8
20260510054600 16 212 0.0 0.0 0.00 0.00 0.00 90 1010.7
20260510053100 16 212 0.0 0.0 0.00 0.00 0.00 90 1010.9
20260510051638 16 212 0.0 0.0 0.00 0.00 0.00 89 1011.0
20260510050055 16 212 0.0 0.0 0.00 0.00 0.00 88 1011.1
20260510044549 17 212 0.0 0.0 0.00 0.00 0.00 86 1011.1
20260510043118 17 212 0.0 0.0 0.00 0.00 0.00 86 1011.0
20260510041550 17 212 0.0 1.6 0.00 0.00 0.00 84 1010.9
20260510040043 18 165 0.0 4.8 0.00 0.00 0.00 84 1010.9
20260510034545 18 209 0.0 3.2 0.00 0.00 0.00 84 1011.0
20260510033042 18 215 0.0 9.7 0.00 0.00 0.00 83 1011.0
20260510031608 18 238 1.6 8.0 0.00 0.00 0.00 82 1011.0
20260510030040 18 196 1.6 8.0 0.00 0.00 0.00 82 1010.9
20260510024540 18 190 1.6 8.0 0.00 0.00 0.00 81 1010.9
20260510023047 18 155 1.6 8.0 0.00 0.00 0.00 80 1010.8
20260510021543 18 173 1.6 11.3 0.00 0.00 0.00 79 1010.6
20260510020038 19 200 4.8 14.5 0.00 0.00 0.00 78 1010.4
20260510014537 19 226 0.0 14.5 0.00 0.00 0.00 78 1010.3
20260510013038 19 171 3.2 9.7 0.00 0.00 0.00 78 1010.1
20260510011546 19 190 0.0 8.0 0.00 0.00 0.00 77 1009.8
20260510010042 19 169 0.0 9.7 0.00 0.00 0.00 77 1009.6
20260510004535 20 198 3.2 12.9 0.00 0.00 0.00 76 1009.3
20260510003035 20 198 0.0 3.2 0.00 0.00 0.00 75 1009.0
20260510001534 20 234 1.6 6.4 0.00 0.00 0.00 73 1008.9
20260510000033 21 169 3.2 11.3 0.00 0.00 0.00 73 1008.9
20260509234535 21 207 1.6 11.3 0.00 0.00 0.00 72 1008.8
20260509233033 21 157 1.6 9.7 0.00 0.00 0.00 70 1008.5
20260509231534 21 201 1.6 11.3 0.00 0.00 0.00 69 1008.5
20260509230031 22 157 1.6 9.7 0.00 0.00 0.00 67 1008.2
20260509224531 22 175 4.8 11.3 0.00 0.00 0.00 66 1008.1
20260509223030 22 159 3.2 12.9 0.00 0.00 0.00 65 1008.1
20260509221536 22 177 4.8 17.7 0.00 0.00 0.00 63 1008.1
20260509220033 22 194 4.8 14.5 0.00 0.00 0.00 62 1008.1
20260509214530 22 167 3.2 20.9 0.00 0.00 0.00 62 1008.1
20260509213029 23 166 1.6 16.1 0.00 0.00 0.00 61 1008.0
20260509211551 23 163 3.2 14.5 0.00 0.00 0.00 59 1008.0
20260509210025 23 248 3.2 11.3 0.00 0.00 0.00 60 1007.8
20260509204524 23 205 0.0 9.7 0.00 0.00 0.00 62 1007.6
20260509203037 23 236 8.0 20.9 0.00 0.00 0.00 60 1007.8
20260509201522 23 142 8.0 16.1 0.00 0.00 0.00 61 1008.0
20260509200020 23 234 4.8 14.5 0.00 0.00 0.00 62 1008.0
20260509194517 22 191 6.4 22.5 0.00 0.00 0.00 65 1008.0
20260509193012 22 175 6.4 19.3 0.00 0.00 0.00 67 1008.4
20260509191513 22 172 8.0 14.5 0.00 0.00 0.00 64 1008.5